Weather History for London-Corbin, KY

Change the Weather History Date:

Saturday, August 3, 2013

  Actual Average Record
Temperature  
Mean Temperature 75 °F 76 °F  
Max Temperature 83 °F 86 °F 97 °F (1987)
Min Temperature 66 °F 66 °F 49 °F (1965)
Degree Days  
Heating Degree Days 0 0  
Month to date heating degree days 0 0  
Since 1 June heating degree days 0 9  
Since 1 July heating degree days 0 0  
Cooling Degree Days 10 11  
Month to date cooling degree days 22 33  
Year to date cooling degree days 624 740  
Since 1 June cooling degree days 524 626  
Growing Degree Days 24 (Base 50)    
Moisture  
Dew Point 67 °F    
Average Humidity 76    
Maximum Humidity 93    
Minimum Humidity 58    
Precipitation  
Precipitation 0.06 in 0.13 in 1.65 in (2003)
Month to date precipitation 0.12 0.37  
Year to date precipitation 37.56 29.34  
Snow  
Snow 0.00 in - - ()
Month to date snowfall M  
Since 1 June snowfall M  
Snow Depth 0.00 in    
Sea Level Pressure  
Sea Level Pressure 30.01 in    
Wind  
Wind Speed 5 mph (West)    
Max Wind Speed 15 mph    
Max Gust Speed 20 mph    
Visibility 9 miles    
Events Rain    
T = Trace of Precipitation, MM = Missing Value Source: NWS Daily Summary

Daily Weather History Graph

Daily Weather History Graph

Search for Another Location

Airport:

Trip Planner

Search our weather history database for the weather conditions in past years. The results will help you decide how hot, cold, wet, or windy it might be!

Date:

Astronomy

Aug. 03, 2013 Rise Set
Actual Time 6:43 AM EDT 8:41 PM EDT
Civil Twilight 6:14 AM EDT 9:09 PM EDT
Nautical Twilight 5:39 AM EDT 9:44 PM EDT
Astronomical Twilight 5:02 AM EDT 10:21 PM EDT
Moon 3:52 AM EDT (8/3) 6:22 PM EDT (8/3)
Length of Visible Light 14h 55m
Length of Day
13h 58m
Waning Crescent, 9% of the Moon is Illuminated
Aug 3
Waning Crescent
Aug 6
New
Aug 14
First Quarter
Aug 20
Full
Aug 28
Last Quarter

Hourly Weather History & Observations

Time (EDT) Temp. Heat Index Dew Point Humidity Pressure Visibility Wind Dir Wind Speed Gust Speed Precip Events Conditions
12:53 AM 66.9 °F - 64.9 °F 93% 30.02 in 9.0 mi Calm Calm - N/A   Clear
1:53 AM 66.9 °F - 64.0 °F 90% 30.01 in 8.0 mi SSE 3.5 mph - N/A   Clear
2:53 AM 66.9 °F - 64.9 °F 93% 30.01 in 10.0 mi Calm Calm - N/A   Clear
3:53 AM 66.9 °F - 64.0 °F 90% 30.01 in 10.0 mi Calm Calm - N/A   Clear
4:53 AM 66.0 °F - 64.0 °F 93% 30.00 in 10.0 mi Calm Calm - N/A   Clear
5:53 AM 66.0 °F - 64.0 °F 93% 30.00 in 10.0 mi Calm Calm - N/A   Overcast
6:53 AM 66.9 °F - 64.0 °F 90% 30.01 in 10.0 mi Calm Calm - N/A   Mostly Cloudy
7:53 AM 66.9 °F - 64.9 °F 93% 30.02 in 10.0 mi Calm Calm - N/A   Scattered Clouds
8:53 AM 71.1 °F - 64.9 °F 81% 30.01 in 10.0 mi Calm Calm - N/A   Clear
9:53 AM 75.9 °F - 64.0 °F 67% 30.01 in 10.0 mi SW 4.6 mph - N/A   Partly Cloudy
10:53 AM 78.1 °F - 64.9 °F 64% 30.02 in 10.0 mi SW 5.8 mph - N/A   Scattered Clouds
11:53 AM 80.1 °F 81.9 °F 64.9 °F 60% 30.02 in 10.0 mi SW 11.5 mph - N/A   Clear
12:53 PM 80.1 °F 82.1 °F 66.0 °F 62% 30.03 in 10.0 mi West 13.8 mph - N/A   Overcast
1:53 PM 81.0 °F 83.8 °F 68.0 °F 65% 30.02 in 10.0 mi WNW 6.9 mph - N/A   Overcast
2:53 PM 81.0 °F 83.8 °F 68.0 °F 65% 30.01 in 10.0 mi West 8.1 mph - N/A   Overcast
3:53 PM 81.0 °F 83.3 °F 66.9 °F 62% 30.00 in 10.0 mi West 10.4 mph - N/A   Mostly Cloudy
4:53 PM 82.0 °F 84.9 °F 68.0 °F 62% 29.99 in 10.0 mi West 9.2 mph - N/A   Mostly Cloudy
5:53 PM 81.0 °F 83.8 °F 68.0 °F 65% 29.99 in 10.0 mi West 10.4 mph - N/A   Overcast
6:53 PM 79.0 °F - 68.0 °F 69% 29.98 in 10.0 mi WSW 8.1 mph - N/A   Overcast
7:53 PM 78.1 °F - 70.0 °F 76% 29.97 in 10.0 mi WNW 5.8 mph - 0.00 in   Mostly Cloudy
8:53 PM 75.0 °F - 69.1 °F 82% 29.98 in 10.0 mi WNW 3.5 mph - N/A   Clear
9:53 PM 75.0 °F - 69.1 °F 82% 29.99 in 10.0 mi West 3.5 mph - N/A   Clear
10:53 PM 72.0 °F - 69.1 °F 91% 30.01 in 8.0 mi Calm Calm - N/A   Clear
11:38 PM 71.6 °F - 69.8 °F 94% 30.05 in 2.5 mi NW 3.5 mph - 0.06 in Rain Heavy Rain
11:49 PM 71.6 °F - 69.8 °F 94% 30.06 in 6.0 mi NW 3.5 mph - 0.06 in Rain Light Rain
11:53 PM 72.0 °F - 70.0 °F 93% 30.02 in 7.0 mi WNW 4.6 mph - 0.06 in Rain Light Rain